This is the latest recevied weather packets stored in our database for station/object SP4MGL-10. If no packets are shown the sender has not sent any weather packets the latest 10 day(s).
| Time | Temp. | Humidity | Pressure | Rain* | Wind** | Luminosity | Snow |
|---|---|---|---|---|---|---|---|
| 1788264541 | 22.22° C | 57% | 1015.8 hPa | - | - | - | - |
| 1788263641 | 18.33° C | 70% | 1015.8 hPa | - | - | - | - |
| 1788262741 | 17.78° C | 76% | 1015.8 hPa | - | - | - | - |
| 1788261841 | 20.56° C | 62% | 1015.6 hPa | - | - | - | - |
| 1788260941 | 20° C | 66% | 1015.6 hPa | - | - | - | - |
| 1788260041 | 17.22° C | 78% | 1015.5 hPa | - | - | - | - |
| 1788259141 | 21.67° C | 58% | 1015.6 hPa | - | - | - | - |
| 1788258240 | 17.78° C | 74% | 1015.4 hPa | - | - | - | - |
| 1788257340 | 17.22° C | 82% | 1015.2 hPa | - | - | - | - |
| 1788256440 | 17.22° C | 80% | 1015.5 hPa | - | - | - | - |
| 1788255540 | 16.67° C | 82% | 1015.3 hPa | - | - | - | - |
| 1788254640 | 16.11° C | 83% | 1015.2 hPa | - | - | - | - |
| 1788253740 | 16.11° C | 83% | 1015.2 hPa | - | - | - | - |
| 1788252840 | 16.67° C | 83% | 1015 hPa | - | - | - | - |
| 1788251940 | 16.67° C | 84% | 1015.1 hPa | - | - | - | - |
| 1788251040 | 16.11° C | 83% | 1015.2 hPa | - | - | - | - |
| 1788250139 | 16.11° C | 84% | 1014.9 hPa | - | - | - | - |
| 1788249239 | 16.67° C | 86% | 1014.8 hPa | - | - | - | - |
| 1788248338 | 16.11° C | 85% | 1014.7 hPa | - | - | - | - |
| 1788247438 | 16.11° C | 88% | 1014.7 hPa | - | - | - | - |
| 1788246538 | 15.56° C | 91% | 1014.3 hPa | - | - | - | - |
| 1788245638 | 15.56° C | 90% | 1014.4 hPa | - | - | - | - |
| 1788244738 | 15.56° C | 89% | 1014.2 hPa | - | - | - | - |
| 1788243838 | 15.56° C | 90% | 1014.1 hPa | - | - | - | - |
| 1788242938 | 15° C | 93% | 1014 hPa | - | - | - | - |
* Rain since midnight (hover to see other rain measurements)
** Current wind speed in m/s (hover to see current wind gust speed)